Showing default

TIROS 4, 226

Orbit data source: Space-Track

TIROS 4, 226 is a payload satellite owned by GSFC (US) in LEO that was launched on Thu, 08 Feb 1962 UTC via a THOR DELTA launch vehicle from the Air Force Eastern Test Range (AFETR). Payload-class satellites include a variety of spacecraft equipped with specific instruments for various scientific and technological missions. These include communications satellites like Starlink; space stations such as the ISS; scientific satellites like the Hubble; Earth observation satellites from companies like Planet Labs, Umbra, and HawkEye 360; GPS; miniature CubeSats for education and research; and military/defense satellites.

Loading next visibility...
Identifier
226, 1962-002A
Orbit
LEO
Country
Flag of USUS
Related business
Manufacturer
RCA/East Windsor
Mission
Non-operational spacecraft
Bus & Motor
TIROS, Unknown motor
Mass
129 kg wet, 129 kg dry
Launch date (UTC)
1962-02-08 (64 years ago)
Launch vehicle
THOR DELTA
Launch site
Air Force Eastern Test Range (AFETR)
Object type
Payload
Rocket body
Debris
Shape & HBR
Unknown
Radar Cross Section
Medium (>0.1 m² and <1 m²)

Expand to show TLE details & history
Last TLE update: 18 hours ago

TLE from 18 hours ago
0 TIROS 4
1   226U 62002A   25318.22449286  .00000486  00000-0  17413-3 0  9993
2   226  48.2957 263.7892 0075787  86.2611 274.6950 14.47047992337319
Epoch: 2025-11-14T05:23Z
TLE epoch observation values (Epoch: 2025-11-14T05:23:16.183Z)
Latitude
-0.00003°
Longitude
129.40069°
Altitude
731.654 km
Speed
7.493 km/s
True Right ascension
17h 35m 09s
True Declination
0° 00' 00"
Sunlit
Object was in daylight at epoch
Visualization orbit readout
Latitude
Unknown
Longitude
Unknown
Altitude
Unknown
Speed
Unknown
Apparent Right ascension
Unknown
Apparent Declination
Unknown
Sunlit
N/A
Visualization observer readout
Local Sidereal Time
20:07:58
Azimuth
Unknown
Elevation
Unknown
Doppler factor
Unknown
Orbital elements
Apogee altitude
790.244 km
Perigee altitude
682.407 km
Semi-major axis
7,114.463 km
Eccentricity
0.00758
Inclination
48.2957°
RAAN
263.7892°
Arg. of periapsis
86.2611°
True anomaly
273.82882°
Mean anomaly
274.695°
Eccentric anomaly
274.26197°
Mean motion
3.61685 °/min
Orbital period
99.53 mins
BSTAR
0.00017413
Loading maneuver chart data...
Computing Atmospheric mass density...
Loading historical data...
Loading historical data...
Loading historical data...
Loading historical data...
Loading historical data...
Loading historical data...
Loading historical data...
Other satellites on launch #2 in the year 1962 (1962-02-08 UTC)

Documentation

Showing up to 5 results
|